Location: Castelbiague
(43.0361°N, 0.9246°E)
Time: 15:34:05
(UTC+00:00)

Meteor 2-10 - Pass Details

Date: 17 June 2021
Orbit: 738 x 868 km, 81.2° (Epoch: 31 July)

Event Time Altitude Azimuth Distance (km) Brightness Sun altitude
Rises 20:08:34 0° 350° (N) 3,185 8.1 -5.3°
Reaches altitude 10° 20:10:54 10° 352° (N) 2,262 7.2 -5.6°
Maximum altitude 20:15:58 81° 80° (E) 764 4.0 -6.3°
Drops below altitude 10° 20:21:07 10° 168° (SSE) 2,294 6.0 -7.0°
Enters shadow 20:22:58 - 169° (S) 3,028 6.6 -7.3°
